Find Starlink 5800

NORAD ID: 56041 Int'l Des: 2023-042 Owner: SPXS Country: US Constellation: starlink operational
LEOCIRCULAR

Live Position

Loading 3D Globe...

About Starlink 5800

Description loading...

Upcoming Passes

Passes for default location (London). Set your location on the main map for personalized predictions.

Altitude History

Loading altitude history...

Two-Line Element Set

1 56041U 23042BH 26104.30600144 -.00002330 00000-0 -79266-4 0 9992
2 56041 43.0037 192.6211 0001349 263.6133 96.4564 15.25910722168618
Epoch: Apr 14, 2026 • Age: 16 hours

Current Status

Altitude 487.7 km
Velocity 7.62 km/s
Sub-Earth Point 17.34°N, 17.73°E
Launch Date Mar 24, 2023
Age 3 years
Type internet

Technical Details

Classification Payload
Mass 305.00 kg
Dry Mass 290.00 kg
Total Mass 305.00 kg
Length 0.20 m
Diameter 2.80 m
Span 9.00 m
Shape Box + pan
Manufacturer SPXS
Bus Type Starlink
Phase Status In Orbit
Owner/State SPXS/US

Most Searched